639  
ASUS44 KOUN 241900  
RWROK  
 
WEATHER ROUNDUP FOR OKLAHOMA  
NATIONAL WEATHER SERVICE NORMAN OK  
200 PM CDT SAT JUN 24 2017  
 
NOTE: "FAIR" INDICATES FEW OR NO CLOUDS BELOW 12,000 FEET WITH NO  
SIGNIFICANT WEATHER AND/OR S TO VISIBILITY
.  
 
OKZ001>007-009>012-014-015-017-242000-  
NORTHWEST OKLAHOMA AND THE PANHANDLE  
 
CITY SKY/WX TMP DP RH WIND PRES REMARKS
 
GAGE MOSUNNY 80 52 37 MISG 30.24F  
GUYMON CLOUDY 75 51 43 S10G24 30.26F  
ENID/WOODRING MOSUNNY 82 54 36 E10 30.21F  

 
 
OKZ016-021>023-033>039-044-045-242000-  
SOUTHWEST OKLAHOMA  
 
CITY SKY/WX TMP DP RH WIND PRES REMARKS
 
LAWTON/REGL PTSUNNY 82 64 54 E12 30.18F  
LAWTON/FT SILL MOSUNNY 82 65 57 E13 30.17F  
FREDERICK CLOUDY 77 65 66 E7 30.17F  
CLINTON SUNNY 83 51 33 E15G23 30.23F  
HOBART MOSUNNY 84 56 38 E15G22 30.21F  
ALTUS AFB MOSUNNY 78 61 55 SE10 30.20F  

 
 
OKZ018>020-024>031-242000-  
CENTRAL OKLAHOMA  
 
CITY SKY/WX TMP DP RH WIND PRES REMARKS
 
OKLAHOMA CITY MOSUNNY 83 48 29 E12 30.20F  
OKC/WILEY POST SUNNY 83 48 29 E15 30.20F  
STILLWATER CLOUDY 82 50 32 NE12 30.21F  
GUTHRIE CLOUDY 80 53 39 SE9G16 30.22F  

 
 
OKZ008-013-054>072-242000-  
NORTHEAST OKLAHOMA  
 
CITY SKY/WX TMP DP RH WIND PRES REMARKS
 
TULSA MOSUNNY 82 57 42 NE8 30.19F  
TULSA/JONES MOSUNNY 82 51 34 VRB5 30.20F  
PONCA CITY SUNNY 81 50 33 VRB5 30.21F  
BARTLESVILLE SUNNY 82 52 35 NE8 30.22F  
MUSKOGEE CLOUDY 80 56 43 NE8 30.20F  

 
 
OKZ032-040>043-046>053-073>077-242000-  
SOUTH CENTRAL/SOUTHEAST OKLAHOMA  
 
CITY SKY/WX TMP DP RH WIND PRES REMARKS
 
MCALESTER PTSUNNY 82 56 40 VRB6 30.18F  

 
 
 
 
CLICK HERE TO GO TO PREVIOUS BULLETINS.

The Nexlab OK Page Main Text Page